Regional Weather Roundup
Issued by NWS

Home | Current Version | Previous Version | Graphics & Text | Print | Product List | Glossary On
Versions: 1 2 3 4 5 6 7 8 9 10 11 12 13 14 15 16 17 18 19 20 21 22 23 24 25 26 27 28 29 30 31 32 33 34 35 36 37 38 39 40 41 42 43 44 45 46 47 48 49 50
000
ASUS45 KSLC 210510
RWRUT

UTAH REGIONAL WEATHER ROUNDUP
NATIONAL WEATHER SERVICE SALT LAKE CITY UT
1000 PM MST FRI JAN 20 2017

UTZ001>011-023>025-210600-

NORTHERN UTAH

CITY           SKY/WX    TMP DP  RH WIND       PRES   REMARKS
BRIGHAM CITY     N/A     30  28  90 CALM      29.36S
HILL AFB       LGT SNOW  31  30  96 SE7       29.32F FOG     WCI  25
LOGAN          LGT SNOW  27  25  92 CALM      29.34F FOG
OGDEN          LGT SNOW  32  32 100 E5        29.33F FOG     WCI  27
SALT LAKE CITY CLOUDY    34  31  88 S14       29.32F WCI  25
TOOELE VALLEY  CLOUDY    32  32 100 CALM      29.32S
WENDOVER       CLOUDY    25  23  93 CALM      29.31S
HEBER CITY     FLURRIES  30  25  80 NW5       29.34S WCI  25
WEST JORDAN    CLOUDY    32  32 100 S12       29.33F WCI  23

$$

UTZ011>015-024>027-210600-

CENTRAL/NORTHEAST UTAH

CITY           SKY/WX    TMP DP  RH WIND       PRES   REMARKS
PROVO AIRPORT  LGT RAIN  36  28  73 SE14      29.34F WCI  27
MOAB/CANYONLAN CLOUDY    36  33  89 SE9       29.42F WCI  29
DELTA          CLOUDY    32  32 100 S7        29.31F WCI  26
PRICE          LGT SNOW  28  28 100 NE3       29.39F VSB 1
ROOSEVELT      LGT SNOW  23  19  86 CALM      29.48F
VERNAL         CLOUDY    23  19  85 CALM      29.45F

$$

UTZ013>016-019>022-027-210600-

SOUTHERN UTAH

CITY           SKY/WX    TMP DP  RH WIND       PRES   REMARKS
BRYCE CANYON   SNOW      26  24  92 SE16G32   29.35F VSB 1/2 WCI  14
CEDAR CITY     CLOUDY    31  29  92 S12       29.28F WCI  22
MILFORD        LGT SNOW  33  32  96 S9        29.29F FOG     WCI  25
ST GEORGE      CLOUDY    43  36  75 SE7       29.36S
HANKSVILLE     CLOUDY    37  32  81 MISG      29.42F
BLANDING       CLOUDY    31  31 100 SE14      29.56F VSB 1   WCI  20

$$

REGIONAL REPORTS     COLORADO/ARIZONA

CITY           SKY/WX    TMP DP  RH WIND       PRES   REMARKS
CRAIG, CO      CLOUDY    20  16  84 E3        29.45F
GRAND JUNCTION CLOUDY    34  31  88 E8        29.46S WCI  27
RIFLE, CO      CLOUDY    28  26  92 CALM      29.48S
MONTROSE, CO   CLOUDY    32  22  66 SE7       29.51S WCI  26
CORTEZ, CO     LGT SNOW  31  30  96 CALM      29.52F FOG
COLORADO CITY  CLOUDY    36  34  93 E8        29.38F WCI  29
PAGE, AZ       CLOUDY    39  31  72 SE6       29.39F WCI  35
GRAND CANYON   LGT SNOW  30  30 100 S10       29.39F FOG     WCI  21
KINGMAN, AZ    LGT RAIN  42  39  89 SW23G36   29.39S
FLAGSTAFF, AZ  HVY SNOW  28  27  96 SW18G25   29.42F VSB 1/4 WCI  15

$$

REGIONAL REPORTS    NEVADA/IDAHO/WYOMING

CITY           SKY/WX    TMP DP  RH WIND       PRES   REMARKS
LAS VEGAS, NV  MOCLDY    49  36  61 S12       29.30R
ELY, NY        CLOUDY    29  25  85 S9        29.26R WCI  20
ELKO, NV       LGT SNOW  30  27  88 NE3       29.23S FOG
POCATELLO, ID  CLOUDY    25  22  88 N7        29.33F WCI  17
BURLEY, ID     LGT SNOW  31  27  85 NW7       29.26F FOG     WCI  24
FORT BRIDGER,  FOG       12  12 100 CALM      29.38F VSB 1/4
EVANSTON, WY   CLOUDY    21  13  71 E12       29.32F WCI   9
ROCK SPRINGS,  CLOUDY    19  13  77 SE8       29.39S WCI   9

$$



USA.gov is the U.S. government's official web portal to all federal, state and local government web resources and services.